Location: Arcizac
(43.0933°N, 0.0112°E)
Time: 12:51:55
(UTC+00:00)

Cosmos 1850 Rocket - Pass Details

Date: 14 December 2019
Orbit: 753 x 786 km, 74.0° (Epoch: 17 January)

Event Time Altitude Azimuth Distance (km) Brightness Sun altitude
Rises 18:44:41 0° 193° (SSW) 3,217 7.5 -24.5°
Reaches altitude 10° 18:47:02 10° 191° (SSW) 2,300 6.7 -24.9°
Enters shadow 18:51:54 71° 142° (SE) 818 3.9 -25.8°
